Wetbulb
52.00 53.10 54.12 54.47 54.41 54.43 54.77 54.12 54.40 54.77 54.68 55.12 54.90 54.22 54.00 52.87 51.80 50.32 49.84 47.90 47.56 46.27
46.13 48.09 49.63 51.03 54.54 55.08 54.82 54.60 53.94 54.20 54.34 54.24 54.06 53.74 53.26 52.87 51.52 50.67 50.02 48.22 48.04 46.02
44.08 44.09 44.81 46.22 49.35 52.12 53.97 54.38 53.94 53.67 53.59 53.37 52.87 52.86 52.64 52.40 51.52 50.09 49.41 49.17 47.90 46.23
43.79 43.95 44.47 45.34 48.46 50.15 51.80 53.07 53.54 53.77 53.59 53.23 52.59 52.27 51.77 51.77 51.43 50.15 49.04 49.09 47.72 46.34
40.59 39.94 40.63 42.38 44.11 46.88 47.53 49.47 51.80 52.56 52.67 52.99 52.67 52.45 51.70 50.89 51.00 49.72 48.87 48.51 47.04 45.54
39.65 41.57 40.84 41.42 41.70 43.80 44.21 45.45 46.59 49.28 50.38 51.25 51.25 51.24 51.11 50.92 50.57 49.66 48.74 48.02 46.77 45.09
36.51 37.21 39.03 40.41 40.52 41.57 43.24 42.84 42.08 40.60 40.78 42.41 48.57 49.90 49.94 50.30 49.70 49.06 47.88 47.00 46.79 44.93
35.10 35.69 36.39 37.22 37.08 37.87 38.99 40.71 40.12 39.23 41.42 43.48 45.45 47.74 49.13 48.95 48.41 47.96 46.68 44.84 45.58 45.28
37.10 36.64 35.78 35.24 35.78 35.94 36.87 37.88 39.26 40.15 42.06 42.15 44.95 43.73 43.32 46.28 47.81 47.51 47.15 45.06 45.79 46.22
35.90 34.75 34.59 34.86 34.74 34.42 35.08 35.92 36.28 38.01 39.76 41.67 43.90 41.66 42.36 41.41 47.77 47.52 47.52 46.90 45.39 45.52
34.60 33.65 33.63 33.44 33.80 33.58 33.71 33.71 34.40 35.83 38.07 40.48 42.82 40.70 40.86 40.37 45.13 46.12 46.07 46.48 45.84 45.31
33.85 33.62 32.74 32.33 31.84 33.12 33.00 32.70 33.03 34.03 35.62 38.00 40.40 39.25 39.23 39.25 43.08 42.90 42.37 44.04 43.88 43.60
33.76 33.47 33.09 32.90 32.33 32.06 33.32 32.49 32.93 32.66 33.37 35.72 35.58 37.53 37.92 38.79 37.69 35.86 36.53 37.83 41.22 39.09
33.80 33.73 34.39 33.29 33.23 32.58 32.18 32.48 31.99 31.99 31.96 32.57 34.17 35.39 38.04 37.34 36.56 35.83 35.75 35.88 35.12 37.57
MSLP
1007.44 1007.27 1007.16 1006.69 1007.04 1006.38 1006.76 1006.86 1007.35 1007.73 1007.73 1007.87 1008.53 1009.18 1009.81 1010.15 1010.93 1011.57 1012.41 1012.96 1014.17 1015.62
1007.47 1007.27 1006.72 1006.46 1006.76 1006.20 1005.76 1005.92 1005.95 1006.65 1007.38 1007.51 1008.04 1008.29 1009.04 1009.75 1009.95 1010.50 1010.97 1012.05 1012.47 1014.00
1007.26 1007.03 1006.71 1006.50 1006.41 1006.04 1005.60 1005.45 1005.46 1005.62 1006.35 1007.19 1007.24 1007.68 1008.51 1008.78 1009.42 1009.80 1010.15 1010.81 1012.01 1013.07
1007.03 1006.88 1006.47 1006.49 1006.25 1005.89 1005.39 1005.16 1004.91 1005.07 1005.47 1005.59 1006.23 1006.25 1007.57 1007.77 1008.35 1009.06 1009.82 1010.16 1011.01 1011.90
1007.11 1007.01 1006.79 1006.51 1006.45 1005.97 1005.65 1005.29 1004.83 1004.74 1004.75 1005.13 1005.19 1005.33 1005.92 1006.44 1006.73 1007.49 1008.76 1009.60 1010.06 1010.84
1006.83 1006.81 1006.57 1006.43 1006.46 1006.11 1005.80 1005.60 1005.30 1004.86 1004.23 1004.15 1004.58 1004.65 1004.95 1005.86 1006.28 1006.43 1007.21 1008.31 1009.20 1009.84
1007.10 1007.13 1006.96 1006.59 1006.25 1005.84 1005.69 1005.46 1005.23 1004.89 1004.54 1004.20 1003.90 1004.07 1004.33 1004.80 1005.39 1005.99 1006.69 1007.13 1007.87 1009.00
1007.20 1007.19 1007.05 1006.70 1006.37 1005.99 1005.61 1005.26 1004.94 1004.76 1004.29 1004.06 1003.75 1003.57 1003.51 1004.01 1004.72 1005.14 1006.16 1006.96 1007.07 1007.81
1007.17 1007.24 1007.17 1006.91 1006.57 1006.32 1005.96 1005.47 1004.93 1004.46 1003.96 1003.57 1003.29 1003.03 1003.21 1003.00 1003.61 1004.30 1005.14 1005.89 1006.31 1006.98
1007.53 1007.39 1006.99 1006.65 1006.37 1006.12 1005.80 1005.36 1004.86 1004.18 1003.61 1002.80 1002.23 1002.33 1002.35 1002.52 1002.78 1003.36 1003.90 1004.72 1005.52 1006.46
1007.56 1007.22 1006.89 1006.56 1006.15 1005.74 1005.48 1005.03 1004.60 1003.92 1003.23 1002.51 1001.90 1001.81 1001.94 1001.83 1002.23 1002.35 1003.09 1003.37 1004.24 1005.23
1007.58 1007.33 1007.04 1006.60 1006.22 1005.81 1005.34 1004.84 1004.32 1003.63 1002.95 1002.07 1001.41 1001.09 1001.15 1001.46 1001.69 1002.16 1002.63 1003.14 1003.53 1004.36
1007.75 1007.44 1006.99 1006.64 1006.40 1006.01 1005.47 1004.93 1004.39 1003.65 1003.11 1002.18 1001.64 1001.17 1001.01 1001.19 1001.62 1002.31 1002.77 1003.18 1003.41 1004.00
1007.57 1007.23 1006.86 1006.51 1006.28 1006.00 1005.47 1004.95 1004.52 1003.92 1003.42 1002.65 1002.05 1001.37 1001.09 1001.20 1001.49 1002.00 1002.57 1002.92 1003.52 1004.21
Wind_Speed
7 5 7 6 5 5 7 8 7 10 13 14 14 11 11 11 14 16 14 17 10 6
5 5 5 7 9 7 7 7 9 10 11 13 13 13 13 10 14 15 17 15 15 11
6 6 6 5 8 9 9 8 8 10 12 10 11 11 12 11 12 14 13 12 17 13
5 6 5 5 6 6 7 9 10 12 12 14 13 14 13 14 13 15 15 15 17 17
4 5 5 5 5 5 6 7 8 12 13 14 16 16 18 18 16 17 18 16 17 18
7 9 10 10 9 8 5 6 7 9 10 12 14 14 15 14 15 15 18 17 17 18
5 6 7 11 11 10 6 6 6 6 7 7 10 14 13 14 14 13 15 18 19 18
4 5 7 10 9 10 11 8 7 7 8 9 8 7 15 14 13 12 14 13 16 19
9 9 8 10 9 9 8 9 9 10 11 13 8 11 15 12 13 14 14 15 16 18
7 8 9 9 9 9 7 7 8 9 11 14 11 13 15 17 13 11 14 15 15 15
8 8 9 10 9 8 8 7 8 9 11 13 11 14 17 16 13 9 13 14 17 18
7 8 8 10 10 9 8 8 7 7 10 10 11 12 15 12 9 9 10 12 13 14
5 6 7 7 8 8 7 7 6 6 7 7 6 8 10 11 6 6 6 5 10 19
5 6 5 5 6 7 8 6 5 4 5 6 6 4 8 13 7 7 7 7 6 8
Wind_Direction
281 277 249 255 244 226 214 209 190 199 189 192 195 194 198 182 188 180 178 173 162 172
274 274 273 265 253 249 234 224 195 201 208 201 197 189 188 198 191 183 184 184 174 169
305 303 294 278 265 254 241 222 224 204 198 202 196 191 194 191 198 187 189 184 181 173
314 310 313 299 296 282 263 250 232 228 226 205 200 182 202 197 193 197 194 190 186 181
304 320 318 322 322 329 316 311 276 234 221 224 215 200 201 205 198 190 198 198 185 176
354 347 340 331 324 317 298 285 287 275 249 226 224 212 199 202 207 194 197 194 188 175
341 332 326 322 320 324 305 272 259 260 271 261 230 216 212 204 198 197 199 195 190 180
346 353 341 333 327 323 320 309 295 265 251 251 247 236 205 196 206 196 193 192 192 185
3 347 334 329 327 319 314 307 296 289 274 245 236 227 230 215 200 202 201 196 195 192
350 336 339 331 328 324 310 303 298 285 278 262 245 229 223 213 213 213 210 205 196 200
347 341 341 334 327 325 321 312 306 294 282 266 247 226 221 213 223 219 206 200 197 192
346 332 332 337 336 325 319 317 312 310 300 270 257 232 216 199 214 211 203 198 181 185
320 314 329 327 327 324 311 308 311 323 316 303 276 249 213 195 142 146 146 157 175 169
307 307 307 319 319 318 318 314 320 337 342 354 347 294 191 155 152 151 146 145 133 164